MDT,Max TemperatureF,Mean TemperatureF,Min TemperatureF,Max Dew PointF,MeanDew PointF,Min DewpointF,Max Humidity, Mean Humidity, Min Humidity, Max Sea Level PressureIn, Mean Sea Level PressureIn, Min Sea Level PressureIn, Max VisibilityMiles, Mean VisibilityMiles, Min VisibilityMiles, Max Wind SpeedMPH, Mean Wind SpeedMPH, Max Gust SpeedMPH,PrecipitationIn, CloudCover, Events, WindDirDegrees
2013-8-1,82,64,46,77,60,41,89,85,81,30.33,30.12,29.98,10,10,10,25,7,38,0.00,2,Rain,236
2013-8-2,71,58,44,66,54,39,88,84,81,30.19,30.13,30.04,10,10,10,24,8,33,0.01,1,Rain,215
2013-8-3,77,54,32,72,52,32,100,88,81,30.26,30.21,30.18,10,10,10,23,4,38,0.00,0,,216
2013-8-4,80,56,32,75,54,32,100,88,81,30.29,30.22,30.17,10,10,10,18,3,31,0.00,1,,254
2013-8-5,82,57,32,77,56,30,100,89,81,30.25,30.18,30.08,10,10,10,20,3,40,0.00,0,,285
2013-8-6,77,56,35,73,56,36,100,88,82,30.22,30.18,30.14,10,10,10,14,3,22,0.00,0,,325
2013-8-7,80,56,32,75,55,32,100,88,81,30.23,30.18,30.11,10,10,10,14,2,21,0.00,0,Rain,336
2013-8-8,80,58,35,75,54,32,100,88,81,30.28,30.19,30.12,10,10,3,17,3,26,0.03,2,Rain,292
2013-8-9,73,58,44,68,54,41,88,84,81,30.28,30.24,30.17,10,10,7,14,3,22,0.01,3,Rain,54
2013-8-10,80,56,33,75,56,30,93,85,81,30.30,30.24,30.18,10,10,10,22,3,29,0.00,1,,254
2013-8-11,80,58,35,75,56,32,100,87,81,30.31,30.26,30.20,10,10,10,18,4,30,0.00,1,,174
2013-8-12,80,65,50,75,62,45,89,85,82,30.34,30.28,30.23,10,10,5,16,4,22,0.00,2,Rain,94
2013-8-13,77,54,32,73,51,28,100,88,81,30.37,30.31,30.25,10,10,10,21,3,26,0.00,1,Rain,71
2013-8-14,80,56,32,75,52,28,100,85,81,30.35,30.28,30.20,10,10,10,12,2,23,0.00,1,Rain,316
2013-8-15,86,59,32,81,56,28,100,85,81,30.31,30.25,30.20,10,10,10,12,3,38,0.00,0,,233
2013-8-16,86,59,32,82,57,28,100,86,81,30.31,30.25,30.21,10,10,10,20,3,31,0.00,0,,221
2013-8-17,84,60,35,81,59,32,89,85,79,30.30,30.23,30.16,10,10,10,17,4,28,0.00,1,,223
2013-8-18,84,66,48,81,65,43,89,84,79,30.28,30.23,30.18,10,10,8,20,6,39,0.00,1,,224
2013-8-19,84,60,37,81,60,32,100,87,81,30.30,30.23,30.16,10,10,10,21,4,31,0.00,0,,227
2013-8-20,84,62,39,81,63,36,89,84,81,30.25,30.19,30.13,10,10,10,16,4,23,0.00,0,Rain,237
2013-8-21,78,60,42,73,58,41,100,87,81,30.35,30.27,30.21,10,10,10,23,7,34,0.00,1,,209
2013-8-22,78,60,41,75,57,36,89,85,81,30.34,30.25,30.15,10,10,10,15,3,24,0.00,1,Rain,213
2013-8-23,80,62,44,75,60,41,89,85,81,30.19,30.13,30.05,10,10,10,20,6,30,0.00,2,,218
2013-8-24,75,62,50,70,56,45,88,84,82,30.27,30.16,30.10,10,10,4,17,6,28,0.05,4,Rain,210
2013-8-25,77,58,39,73,55,36,89,84,81,30.29,30.23,30.16,10,10,2,16,4,26,0.00,1,Rain,204
2013-8-26,73,60,48,68,58,43,88,85,82,30.29,30.24,30.19,10,10,7,20,6,26,0.00,2,Rain,203
2013-8-27,77,60,42,73,57,37,89,85,81,30.31,30.24,30.18,10,10,10,16,4,22,0.00,1,,200
2013-8-28,77,59,41,72,54,36,89,85,81,30.30,30.24,30.21,10,10,10,20,4,32,0.00,2,Rain,200
2013-8-29,80,60,39,75,55,34,89,85,81,30.37,30.31,30.26,10,10,8,17,3,34,0.00,2,Rain,227
2013-8-30,82,60,39,77,60,36,89,85,81,30.34,30.28,30.20,10,10,10,23,6,34,0.00,0,Rain,214
2013-8-31,78,56,35,73,56,34,100,86,81,30.32,30.26,30.21,10,10,10,15,3,21,0.00,1,,240